Weather observations for the past three days for
Kekaha, Pacific Missile Test Facility Barking Sands
Imperial (Metric)
Date Time (hst) Wind (mph) Vis. (mi.) Weather Sky Cond. Temperature (ºF) Relative Humidity Wind Chill (°F) Heat Index (°F) Pressure Precipitation (in)
Air Dwpt 6 hour altimeter (in) sea level (mb) 1 hr 3 hr 6 hr
Max. Min.
17 12:51 W 10 10.00 Mostly Cloudy BKN060 86 66.9 53% 89 30.06 1018.1
17 11:51 W 10 10.00 Overcast OVC055 84.9 66.9 55% 88 30.07 1018.5
17 11:41 W 9 10.00 Mostly Cloudy BKN055 84.9 68 57% 88 30.07 0.0
17 11:11 W 8 10.00 Mostly Cloudy BKN050 84.9 68 57% 88 30.07 0.0
17 10:58 W 8 10.00 Mostly Cloudy BKN055 86 68 55% 89 30.07 0.0
17 10:51 W 8 10.00 Mostly Cloudy BKN050 86 68 55% 89 30.08 1018.6
17 10:10 W 7 10.00 Mostly Cloudy BKN049 84 68 59% 87 30.08 0.0
17 09:51 W 8 10.00 Partly Cloudy SCT049 84.9 69.1 59% 89 30.08 1018.8
17 09:46 W 6 10.00 Partly Cloudy SCT049 84 68 59% 87 30.08 0.0
17 09:42 SW 7 10.00 Mostly Cloudy BKN048 84 69.1 61% 88 30.08 0.0
17 08:51 SW 6 10.00 Fair CLR 82.9 66.9 59% 86 30.08 1018.7
17 07:51 S 3 10.00 Fair CLR 81 64.9 81 73 58% 83 30.07 1018.4
17 06:51 E 5 10.00 Fair CLR 75.9 63 64% 78 30.05 1017.9
17 05:51 E 6 10.00 Fair CLR 73.9 63 69% 30.04 1017.4
17 04:51 E 7 10.00 Fair CLR 73.9 62.1 67% 30.03 1017.0
17 03:51 E 3 10.00 Fair CLR 73 62.1 69% 30.03 1017.1
17 02:51 SE 5 10.00 Fair CLR 73.9 62.1 67% 30.03 1017.1
17 01:51 Calm 10.00 Fair CLR 75 61 84 75 62% 77 30.04 1017.3
17 00:51 E 6 10.00 Fair CLR 75.9 61 60% 78 30.05 1017.9
16 23:51 Calm 10.00 Fair CLR 79 61 54% 80 30.07 1018.3
16 22:51 NE 5 10.00 A Few Clouds FEW042 79 61 54% 80 30.07 1018.6
16 21:51 E 5 10.00 Overcast OVC042 82 62.1 51% 83 30.07 1018.4
16 20:51 Calm 10.00 Overcast SCT037 OVC046 82.9 68 61% 86 30.06 1018.0
16 19:51 SE 6 10.00 Overcast OVC047 82.9 68 90 82.9 61% 86 30.04 1017.3
16 18:51 S 5 10.00 Mostly Cloudy BKN047 84.9 66.9 55% 88 30.02 1016.7
16 17:51 NW 5 10.00 Mostly Cloudy BKN047 87.1 66.9 51% 90 30 1016.2
16 17:41 Vrbl 6 10.00 Mostly Cloudy BKN047 87.1 66.9 51% 90 30 0.0
16 16:51 W 10 10.00 Fair CLR 88 69.1 54% 92 30 1016.2
16 15:51 W 12 10.00 A Few Clouds FEW047 88 68 52% 92 30.01 1016.5
16 15:10 SW 9 10.00 Partly Cloudy SCT046 88 68 52% 92 30.02 0.0
16 14:51 SW 10 10.00 Overcast OVC046 89.1 69.1 52% 94 30.02 1016.8
16 14:27 SW 10 10.00 Mostly Cloudy BKN047 89.1 68 50% 93 30.03 0.0
16 13:51 SW 7 10.00 Fair CLR 88 68 89.1 82 52% 92 30.04 1017.3
16 12:51 W 7 10.00 A Few Clouds FEW046 87.1 66.9 51% 90 30.05 1017.8
16 12:32 NW 6 10.00 Partly Cloudy SCT045 87.1 66.9 51% 90 30.06 0.0
16 12:19 NW 7 10.00 Mostly Cloudy BKN045 87.1 66.9 51% 90 30.06 0.0
16 11:51 NW 8 10.00 Fair CLR 87.1 66.9 51% 90 30.06 1018.3
16 11:33 W 8 10.00 Partly Cloudy SCT045 86 68 55% 89 30.06 0.0
16 11:07 W 7 10.00 Mostly Cloudy BKN045 86 69.1 57% 90 30.07 0.0
16 11:00 W 7 10.00 Partly Cloudy SCT046 86 70 59% 91 30.07 0.0
16 10:51 W 7 10.00 Mostly Cloudy BKN045 84.9 69.1 59% 89 30.07 1018.6
16 10:40 W 8 9.00 Partly Cloudy SCT045 86 69.1 57% 90 30.08 0.0
16 09:51 W 6 10.00 Mostly Cloudy BKN046 84.9 70 61% 89 30.08 1018.7
16 09:48 Vrbl 6 10.00 Mostly Cloudy BKN046 84 70 63% 88 30.08 0.0
16 09:18 W 3 9.00 Partly Cloudy SCT046 82.9 68 61% 86 30.08 0.0
16 08:51 W 3 10.00 A Few Clouds FEW047 82 68 63% 85 30.08 1018.8
16 07:51 Calm 10.00 Fair CLR 82.9 66.9 82.9 73.9 59% 86 30.08 1018.6
16 06:51 E 5 10.00 Fair CLR 77 66 69% 79 30.07 1018.3
16 05:51 SE 3 10.00 A Few Clouds FEW047 75 64 69% 77 30.05 1017.8
16 05:40 SE 3 10.00 Partly Cloudy FEW029 SCT047 75.9 64 67% 78 30.05 0.0
16 04:51 E 3 10.00 Overcast OVC046 77 64.9 66% 79 30.04 1017.4
16 04:17 E 5 10.00 Mostly Cloudy BKN047 75 63 66% 77 30.04 0.0
16 03:51 E 6 10.00 Fair CLR 75 62.1 64% 77 30.03 1017.2
16 02:51 SE 6 10.00 Fair CLR 75 60.1 60% 77 30.04 1017.3
16 01:51 E 5 10.00 A Few Clouds FEW041 77 63 84.9 75.9 62% 79 30.05 1017.6
16 00:51 NE 6 10.00 Fair CLR 77 66 69% 79 30.06 1018.0
15 23:56 E 3 10.00 Partly Cloudy SCT036 77 66 69% 79 30.07 0.0
15 23:51 E 3 10.00 Mostly Cloudy BKN036 78.1 66 67% 80 30.07 1018.6
15 23:39 Calm 10.00 Mostly Cloudy BKN036 77 66 69% 79 30.08 0.0
15 22:51 Calm 10.00 Fair CLR 79 66.9 67% 81 30.08 1018.8
15 21:51 NW 5 9.00 NULL NULL 82 68 63% 85 30.07 1018.6
15 19:51 S 7 10.00 Overcast OVC050 82.9 68 90 82.9 61% 86 30.05 1017.7
15 19:35 SE 5 10.00 Mostly Cloudy BKN050 82.9 68 61% 86 30.04 0.0
15 18:51 NW 6 10.00 Fair CLR 84.9 68 57% 88 30.03 1017.0
15 18:10 NW 8 10.00 Partly Cloudy SCT050 86 69.1 57% 90 30.03 0.0
15 17:51 W 10 10.00 Mostly Cloudy BKN050 86 68 55% 89 30.02 1016.7
15 16:51 SW 9 10.00 Mostly Cloudy BKN050 87.1 66.9 51% 90 30.02 1016.9
15 16:36 SW 13 10.00 Mostly Cloudy BKN050 88 68 52% 92 30.02 0.0
15 15:51 SW 12 10.00 Mostly Cloudy BKN055 88 69.1 54% 92 30.02 1016.8
15 14:55 SW 12 10.00 Mostly Cloudy BKN055 90 66.9 47% 93 30.03 0.0
15 14:51 SW 12 10.00 Mostly Cloudy BKN050 89.1 66.9 48% 92 30.03 1017.0
15 14:11 W 8 10.00 Mostly Cloudy BKN050 88 66 48% 90 30.04 0.0
15 13:51 W 7 10.00 A Few Clouds FEW050 89.1 66 89.1 82 47% 92 30.04 1017.6
15 13:04 N 8 10.00 Partly Cloudy SCT050 88 66 48% 90 30.06 0.0
15 12:51 W 7 10.00 Mostly Cloudy BKN050 88 66 48% 90 30.07 1018.3
15 11:51 NW 7 10.00 Overcast OVC050 86 66 51% 88 30.08 1018.7
15 10:53 W 9 10.00 Mostly Cloudy BKN050 84.9 68 57% 88 30.09 0.0
15 10:51 W 10 10.00 Partly Cloudy SCT050 84 68 59% 87 30.09 1019.1
15 10:39 W 8 10.00 Partly Cloudy SCT050 86 68 55% 89 30.09 0.0
15 10:31 W 8 10.00 Mostly Cloudy BKN049 84.9 66.9 55% 88 30.09 0.0
15 10:15 W 8 10.00 Partly Cloudy SCT049 84.9 68 57% 88 30.1 0.0
15 09:51 W 7 10.00 Mostly Cloudy BKN047 84 66.9 57% 87 30.1 1019.5
15 05:51 SE 5 10.00 Mostly Cloudy BKN049 73 62.1 69% 30.06 1018.1
15 05:08 E 3 10.00 Mostly Cloudy BKN049 73.9 62.1 67% 30.05 0.0
15 05:01 E 5 10.00 Partly Cloudy SCT047 75 62.1 64% 77 30.05 0.0
15 04:30 E 6 10.00 Mostly Cloudy BKN047 73 62.1 69% 30.05 0.0
15 03:51 SE 6 10.00 Fair CLR 75 61 62% 77 30.05 1017.7
15 02:51 SE 3 10.00 Fair CLR 75.9 62.1 62% 78 30.06 1018.1
15 01:51 NE 6 10.00 Fair CLR 77 61 84 73 58% 79 30.08 1018.8
15 00:51 E 6 10.00 Fair CLR 73.9 63 69% 30.1 1019.4
14 23:51 SE 5 10.00 Fair CLR 75.9 63 64% 78 30.11 1019.6
14 22:51 Calm 10.00 Fair CLR 80.1 64 58% 82 30.11 1019.9
14 21:51 NE 3 10.00 Fair CLR 82 64.9 56% 84 30.11 1019.7
14 20:51 Calm 10.00 Partly Cloudy SCT048 82.9 66.9 59% 86 30.09 1019.1
14 20:47 Calm 10.00 Partly Cloudy SCT048 84 66.9 57% 87 30.09 0.0
14 20:15 Calm 10.00 Overcast BKN044 OVC055 84 66.9 57% 87 30.08 0.0
14 19:59 S 5 10.00 Overcast FEW045 OVC055 84 68 59% 87 30.08 0.0
14 19:51 S 6 10.00 Overcast OVC050 84 68 91 84 59% 87 30.08 1018.6
14 18:51 S 7 10.00 Overcast OVC050 86 66.9 53% 89 30.05 1017.8
14 18:43 S 7 10.00 Overcast OVC050 86 66.9 53% 89 30.05 0.0
14 17:51 W 7 10.00 Overcast OVC055 87.1 66.9 51% 90 30.04 1017.3
14 17:43 NW 6 10.00 Mostly Cloudy BKN055 87.1 68 53% 91 30.04 0.0
14 17:05 NW 7 10.00 Mostly Cloudy BKN050 88 66.9 50% 91 30.04 0.0
14 16:51 W 15 10.00 Mostly Cloudy BKN050 88 69.1 54% 92 30.04 1017.3
14 16:34 W 15 10.00 Partly Cloudy SCT050 88 70 55% 93 30.03 0.0
14 16:27 W 15 10.00 Mostly Cloudy BKN050 88 69.1 54% 92 30.04 0.0
14 15:51 W 8 10.00 A Few Clouds FEW049 90 68 48% 94 30.04 1017.4
14 15:45 W 9 10.00 Partly Cloudy SCT049 90 68 48% 94 30.04 0.0
14 14:51 W 7 10.00 Mostly Cloudy BKN048 88 66.9 50% 91 30.05 1017.9
14 14:21 W 8 10.00 Mostly Cloudy BKN050 89.1 66.9 48% 92 30.06 0.0
14 14:10 NW 6 10.00 Partly Cloudy SCT050 89.1 69.1 52% 94 30.06 0.0
14 13:57 W 7 10.00 Partly Cloudy SCT050 89.1 69.1 52% 94 30.06 0.0
14 13:51 W 7 10.00 Mostly Cloudy BKN050 88 69.1 89.1 82.9 54% 92 30.06 1018.2
14 13:29 NW 8 10.00 Mostly Cloudy BKN050 88 70 55% 93 30.07 0.0
Date Time (hst) Wind (mph) Vis. (mi.) Weather Sky Cond. Air Dwpt Max. Min. Relative Humidity Wind Chill (°F) Heat Index (°F) altimeter (in) sea level (mb) 1 hr 3 hr 6 hr
6 hour
Temperature (ºF) Pressure Precipitation (in)